Powrót do katalogu

KUIPER-00123

AktywnyŁącznośćLEO
NORAD 65952·PAYLOAD·🇺🇸 United States

Wystrzelony Oct 14, 2025 z Cape Canaveral Space Force Station

Loading…

Następne Przeloty (najbliższe 24 godziny)

TLE

ŚwieżeSource: CelesTrak SupGP

Epoka: Sep 14, 2026, 20:55 UTC

1 65952C 25228F   26257.87199074 -.00012046  00000+0 -15769-2 0  2574
2 65952  51.8971 246.4974 0000752  46.5951 104.2472 14.79942016    14

Śledź KUIPER-00123 w czasie rzeczywistym z AllMySat

Download on the App Store